Location: Berlin
(52.5171°N, 13.3759°E)
Time: 06:42:27
(UTC+01:00)

ISS - Pass Details

Date: 12 November 2017
Orbit: 402 x 407 km, 51.6° (Epoch: 22 November)

Event Time Altitude Azimuth Distance (km) Brightness Sun altitude
Exits shadow 05:52:31 25° 256° (WSW) 863 -2.7 -13.7°
Maximum altitude 05:53:57 40° 203° (SSW) 606 -3.1 -13.5°
Drops below altitude 10° 05:57:02 10° 132° (SE) 1,453 0.0 -13.0°
Sets 05:59:10 0° 124° (SE) 2,311 1.4 -12.7°
